Location: Asheville, NC
(35.6000°N, 82.5500°W)
Time: 06:44:48
(UTC-05:00)

AO-7 - Pass Details

Date: 08 January 2018
Orbit: 1440 x 1458 km, 101.7° (Epoch: 17 January)

Event Time Altitude Azimuth Distance (km) Brightness Sun altitude
Rises 03:11:41 0° 26° (NNE) 4,569 ? -53.9°
Reaches altitude 10° 03:14:49 10° 34° (NE) 3,586 ? -53.2°
Enters shadow 03:17:43 22° 48° (NE) 2,785 ? -52.7°
